RH
12 12 12 12 14 17 20 23 24 25 25 26 27 25 25 20 20 36 46 46 48 48 45 46 46 44 42 39 37 35 33 31 27 24 20 18 17 16 14 13 11 10 9 10 11 11 14 18 23 26 30 31 28 28 28 28 25 21 19 15 13 11 9 8 8 9 12 15 17 17 17 15 12 9 6 6 11 20 25 27 30 33 32 30 29
12 13 14 14 16 19 21 24 25 26 27 29 30 27 25 23 17 20 32 43 48 50 53 55 52 49 46 44 40 38 35 32 28 23 20 18 17 15 14 14 11 11 9 10 10 11 14 17 23 28 31 32 31 30 30 30 27 22 19 16 13 11 10 8 8 9 12 15 17 18 18 16 13 9 7 6 9 17 24 26 29 33 33 31 30
13 16 17 18 19 21 24 25 27 28 31 33 33 30 28 24 18 15 19 33 48 56 61 63 60 54 50 48 44 41 38 33 28 23 20 19 17 15 14 14 12 11 10 10 10 11 14 18 24 29 32 33 34 33 32 32 29 25 20 16 13 11 10 9 9 9 11 15 17 18 18 17 15 11 8 6 8 15 22 25 28 32 33 33 32
16 19 20 22 23 24 27 28 30 32 35 37 35 33 29 22 18 19 17 22 42 58 66 68 65 59 54 53 49 44 41 35 29 24 21 19 16 14 14 14 13 11 11 10 11 13 14 19 24 31 34 34 37 35 33 34 31 27 21 17 14 12 10 10 10 9 11 14 17 19 19 18 16 13 9 7 7 12 19 23 26 30 33 34 33
20 22 23 25 26 27 28 30 34 36 38 37 35 32 26 19 17 21 23 23 36 53 65 68 64 61 59 58 55 48 44 36 29 25 22 19 16 14 14 15 14 12 12 11 11 13 16 20 24 32 37 36 39 39 35 35 33 28 23 19 15 13 11 11 11 10 12 14 17 20 21 19 17 14 10 8 7 9 17 22 24 27 32 34 34
22 22 24 26 27 28 30 33 35 37 37 34 33 30 23 18 18 21 26 30 39 54 64 62 56 59 63 63 60 52 46 37 30 26 23 19 16 14 15 15 14 13 13 12 11 13 17 21 24 30 38 39 42 42 38 36 34 30 25 21 18 15 13 12 12 11 12 13 16 20 21 21 19 16 12 9 7 7 12 19 22 24 28 31 33
22 22 24 26 28 29 30 32 33 34 33 32 30 25 20 17 20 23 26 32 39 51 55 49 49 57 63 66 64 57 48 38 31 27 23 19 17 15 16 16 15 15 14 13 11 12 16 21 26 29 37 41 45 46 41 38 35 31 27 23 21 18 16 14 13 12 12 13 16 19 22 22 21 18 15 11 8 7 8 14 20 23 24 27 30
21 23 24 27 29 29 30 29 28 28 27 27 22 20 19 17 21 24 32 37 36 37 37 35 45 57 64 69 67 60 51 39 33 29 25 20 19 18 18 18 15 15 14 13 11 11 15 21 28 31 37 41 46 50 45 42 36 31 28 25 23 22 20 18 16 14 13 14 16 19 22 23 23 20 17 13 10 8 6 9 15 20 22 23 25
22 23 24 26 28 28 28 26 24 22 21 19 16 16 15 25 33 30 39 43 40 34 29 33 46 60 67 72 70 62 52 41 36 30 26 22 21 20 20 20 16 16 16 14 12 11 13 20 28 33 41 44 47 53 51 46 40 33 29 26 24 24 24 22 19 16 14 14 16 19 21 23 24 23 20 15 12 9 7 7 10 15 19 21 22
22 23 23 24 25 24 23 20 19 16 15 14 15 16 16 39 50 42 50 51 47 41 35 40 50 63 71 74 73 64 52 42 38 33 28 25 24 24 24 23 20 19 17 15 13 11 12 18 27 34 43 48 50 56 57 52 45 38 32 28 25 25 26 25 23 18 16 14 15 18 20 22 24 26 23 18 15 12 9 7 7 11 16 20 21
20 21 21 20 19 18 17 17 17 14 14 16 18 19 18 40 55 52 61 62 58 53 47 49 55 66 75 77 74 63 52 44 40 35 31 30 28 26 25 26 25 22 20 16 14 12 12 15 24 33 41 49 53 59 63 58 52 45 37 31 27 26 26 27 26 22 19 16 15 16 19 22 23 26 26 22 18 15 11 8 8 8 12 16 20
18 19 17 17 15 16 18 18 17 15 16 19 21 22 20 31 46 49 59 73 75 70 61 58 62 71 82 83 73 61 52 47 42 38 35 35 32 29 26 26 27 25 23 19 15 13 12 13 21 30 39 49 56 63 69 67 59 52 43 35 29 26 27 27 27 26 22 19 17 16 18 21 23 26 27 25 22 18 14 10 9 8 10 12 16
18 17 16 19 18 17 18 16 13 20 34 35 27 20 20 26 32 36 53 80 90 85 76 71 75 83 91 84 69 60 53 49 44 40 39 38 34 31 27 26 27 27 26 24 18 15 13 13 17 27 37 47 57 64 72 73 67 60 49 41 35 28 26 26 26 26 25 23 21 19 18 20 23 25 27 28 25 21 17 13 11 9 9 11 14
20 16 16 20 16 14 14 15 13 23 41 46 42 33 40 51 47 50 65 86 97 94 87 83 88 94 94 79 65 60 55 50 46 43 42 40 35 31 28 26 26 27 29 29 24 19 16 14 16 24 37 46 55 65 72 76 72 66 57 48 42 35 29 26 25 26 28 27 24 23 21 21 23 25 27 29 28 25 21 17 13 10 9 10 12
20 16 15 16 13 15 15 15 15 19 27 34 48 54 70 86 78 73 78 91 99 98 95 92 96 98 89 73 65 62 56 52 48 46 45 41 36 32 30 28 26 27 29 31 29 25 19 16 16 22 36 46 54 65 72 76 74 69 65 57 49 44 37 31 28 28 29 30 29 28 26 25 26 26 27 28 30 29 26 21 17 13 9 9 11
18 15 13 12 14 18 16 15 15 16 18 18 27 36 54 80 87 85 87 95 97 94 97 98 99 95 83 73 68 63 58 54 50 49 46 41 37 33 31 30 29 28 28 30 33 32 26 19 17 21 34 46 52 63 72 77 75 71 69 66 59 53 47 40 34 31 31 33 33 32 32 30 30 31 30 29 30 31 31 27 22 16 11 9 9
14 13 12 15 17 18 16 16 14 11 12 11 13 14 22 52 82 92 95 99 94 91 97 100 98 90 83 78 70 64 59 55 54 51 46 41 38 36 34 33 32 30 29 31 34 36 33 25 20 21 31 44 51 60 70 75 76 74 71 70 68 62 57 51 43 37 34 35 35 35 35 35 34 35 35 33 31 31 33 33 29 22 15 11 9
14 13 12 16 16 15 13 13 13 11 12 14 15 13 14 38 75 96 98 98 99 97 99 101 96 89 85 80 71 65 61 58 57 53 47 42 39 38 37 36 35 33 31 32 34 36 37 32 24 22 27 39 50 58 67 73 76 77 74 71 71 68 63 58 51 43 37 36 37 37 37 37 38 40 41 40 36 33 33 34 34 30 23 16 11
15 12 10 12 12 12 11 12 11 12 15 16 15 14 19 40 76 99 97 94 98 99 99 100 96 91 85 78 72 67 64 63 60 55 48 43 42 41 41 40 39 35 33 33 35 37 39 37 29 24 25 34 46 57 65 71 74 77 75 71 70 69 63 59 56 49 41 36 36 38 40 40 40 44 47 47 44 40 37 35 35 35 31 24 16
15 12 8 10 12 10 11 12 10 13 14 11 17 21 26 49 80 97 94 92 95 98 100 100 95 90 84 79 76 73 71 68 63 57 51 46 45 45 45 43 39 35 34 35 37 40 41 39 34 27 25 30 40 53 62 67 71 74 74 70 67 65 62 59 56 50 45 38 34 35 39 40 42 46 51 53 52 48 44 39 37 36 36 32 25
13 10 7 8 8 8 9 9 9 12 10 16 38 41 35 53 77 89 91 91 94 99 100 96 94 89 83 81 81 79 75 70 65 59 53 49 50 50 47 42 36 34 37 41 41 42 43 42 37 30 26 28 34 44 55 62 66 69 70 68 65 63 61 60 56 50 46 41 35 33 34 37 41 46 51 56 57 55 52 47 44 40 37 37 33
10 8 6 7 7 9 8 7 8 9 15 33 49 43 39 56 71 81 91 92 92 96 96 93 92 87 84 83 82 79 75 72 65 57 54 54 54 52 46 40 35 33 37 44 46 44 44 45 41 33 26 25 30 36 42 49 55 59 63 64 63 62 60 58 57 52 47 43 38 33 31 32 36 43 49 54 58 59 58 55 52 47 41 39 37
9 8 8 10 9 10 8 9 13 17 30 38 38 36 44 59 62 72 90 94 90 92 93 92 90 86 85 82 78 75 72 69 62 57 58 58 56 52 46 41 38 36 38 45 50 48 45 46 46 39 29 23 27 33 34 34 36 41 47 52 55 58 57 54 55 55 50 45 42 37 30 29 32 38 43 48 53 59 62 62 60 56 50 44 40
10 10 9 10 9 10 12 13 16 26 38 34 36 47 53 59 63 75 89 89 89 94 94 90 86 85 80 73 70 70 69 66 64 62 62 60 55 50 47 45 43 42 44 48 52 51 49 49 50 46 35 25 22 28 31 29 28 27 29 33 40 48 51 50 51 53 51 47 45 42 34 29 29 34 39 42 45 51 59 64 65 62 57 53 46
11 11 10 11 13 17 17 17 20 26 34 34 42 54 53 54 60 69 73 76 86 90 87 86 83 79 72 65 64 67 68 66 65 64 63 60 56 52 51 50 48 47 46 48 51 51 52 54 57 53 43 32 22 22 28 29 27 25 23 24 28 36 43 45 45 47 49 48 47 44 39 32 29 30 34 38 41 44 50 59 64 63 61 60 55
10 11 13 17 21 24 21 21 28 32 36 37 42 55 64 65 61 58 59 72 89 88 84 83 78 72 67 64 64 66 66 65 66 64 63 61 59 57 53 49 46 46 46 46 50 53 55 57 61 61 51 42 31 22 23 26 26 25 24 23 25 29 34 37 40 42 44 45 46 44 41 36 30 29 31 34 37 39 42 49 55 57 59 63 62
13 13 17 23 26 27 24 25 32 40 43 38 45 68 82 86 82 76 70 74 86 90 86 79 73 70 69 68 65 65 64 62 61 61 63 62 59 54 47 42 37 37 39 42 49 56 58 59 65 68 58 49 44 32 22 21 22 22 23 23 24 25 27 32 36 39 40 42 45 44 42 38 31 27 29 31 34 37 37 41 45 48 53 59 64
14 14 20 27 29 28 29 30 32 40 42 32 42 60 71 89 97 92 88 82 84 90 85 74 69 70 70 69 65 62 60 56 56 61 61 56 50 44 37 32 27 28 29 32 44 54 58 62 70 76 67 55 53 49 36 26 21 19 20 21 22 23 27 31 34 37 40 41 44 45 43 40 34 27 26 29 32 35 35 37 38 41 45 50 58
18 18 24 31 32 32 32 32 32 38 39 32 45 58 58 72 83 87 92 85 78 81 78 69 66 69 68 64 61 57 54 51 55 61 56 45 39 34 29 27 25 23 23 28 39 50 56 62 71 79 78 69 64 63 58 46 35 26 23 23 24 26 29 31 33 38 42 45 48 48 45 41 34 26 23 27 31 35 35 36 36 37 39 41 47
32 32 34 38 36 34 33 34 34 37 39 41 61 80 69 55 63 81 88 74 63 66 68 66 67 67 62 58 54 52 50 51 53 52 44 33 27 27 26 25 25 24 29 36 41 50 58 65 74 80 85 89 83 74 70 65 56 45 37 34 31 30 35 39 40 45 48 50 51 49 48 45 38 30 26 29 32 33 33 33 34 36 37 38 39
54 54 45 39 38 35 32 34 39 45 47 46 53 69 73 66 70 77 69 56 52 54 56 59 59 52 48 46 42 41 44 52 58 58 50 36 35 46 44 33 33 45 56 58 60 68 71 72 78 84 88 91 92 84 77 73 67 61 55 49 44 44 53 57 58 62 63 61 60 58 57 56 53 46 40 39 38 36 35 34 34 35 38 38 37
72 71 53 38 39 36 34 33 35 48 53 49 43 47 65 69 61 51 40 39 42 43 43 43 39 34 35 34 32 35 40 53 63 66 59 46 48 58 56 49 47 61 76 78 81 82 76 76 77 83 86 81 83 83 78 75 70 64 62 60 57 57 63 67 71 78 83 82 79 77 76 76 74 70 64 58 53 47 41 38 37 36 37 38 38
81 78 58 41 40 37 36 31 32 54 56 46 45 42 46 44 37 35 34 35 35 33 34 33 27 24 26 28 33 43 54 71 77 73 65 55 54 54 55 57 50 58 75 80 86 82 76 79 75 76 78 69 69 72 71 80 84 70 61 64 65 66 69 73 80 88 92 94 93 92 91 92 90 88 87 82 77 68 58 50 46 41 37 35 36
78 71 58 40 38 39 37 32 37 62 58 43 47 44 40 39 38 39 37 35 35 33 31 26 20 17 20 26 31 40 60 78 77 72 63 51 51 51 54 60 60 63 63 65 82 88 83 77 70 71 70 61 60 63 68 83 98 89 74 71 70 73 77 80 87 91 88 86 90 93 91 91 89 88 91 89 88 84 78 74 71 66 58 50 45
59 51 48 35 34 38 37 36 40 52 50 44 48 47 46 46 45 43 42 40 37 34 29 22 16 14 18 23 22 24 40 50 50 53 53 51 53 50 48 50 55 57 49 55 74 75 69 65 64 69 68 63 60 58 60 69 86 97 93 87 80 79 82 84 88 89 90 87 84 86 86 85 82 80 78 75 73 72 70 72 76 79 78 72 65
41 32 38 40 37 40 46 46 46 46 48 50 51 51 51 50 50 49 47 42 35 32 27 18 14 12 13 16 16 16 19 22 26 34 40 49 53 46 39 32 34 40 41 56 72 65 57 59 64 67 68 69 64 56 53 52 61 75 85 91 90 89 90 92 93 92 94 90 80 79 76 68 63 59 55 51 52 54 52 54 59 64 70 74 74
30 21 31 50 41 38 49 48 49 52 53 57 58 58 57 55 56 56 53 41 32 29 23 18 15 13 12 12 13 14 14 13 15 21 25 28 31 31 32 29 27 30 32 44 65 69 60 60 67 70 71 70 64 57 52 46 45 46 52 63 71 79 84 85 84 79 73 71 75 80 71 58 54 55 53 50 52 54 53 52 52 50 51 57 68
26 18 29 59 47 30 40 44 47 52 52 56 61 63 61 62 63 63 57 40 30 28 24 22 18 15 14 12 13 12 14 13 10 13 14 13 16 19 25 32 29 24 23 28 45 54 51 55 63 70 73 69 63 57 50 42 38 34 33 38 49 63 70 67 60 52 48 54 68 75 70 67 67 67 66 64 62 61 61 62 60 55 47 43 48
26 21 25 47 38 21 39 60 57 45 44 48 54 62 65 65 64 60 54 42 36 33 28 27 23 19 17 14 14 13 13 14 12 11 10 9 12 11 15 24 25 21 17 17 22 28 40 55 60 67 73 69 63 57 46 37 34 34 33 34 42 54 63 62 56 49 43 47 54 57 59 63 66 68 68 64 58 55 59 64 65 64 58 49 44
27 23 22 29 32 34 52 73 67 47 43 44 48 57 60 59 57 52 47 40 35 33 31 30 27 24 22 18 15 12 12 12 12 12 11 11 10 8 12 17 21 23 19 16 16 16 32 53 60 66 70 69 67 56 41 32 35 41 40 39 43 48 54 59 61 56 49 47 50 55 58 60 64 66 66 63 61 62 68 74 77 79 79 76 69
27 23 23 23 36 51 54 58 59 52 50 49 50 54 54 54 53 49 44 39 35 33 33 33 32 30 27 24 19 14 13 12 12 12 11 11 10 10 14 16 18 19 19 22 22 17 23 38 51 61 63 61 57 46 33 29 35 44 46 47 46 40 37 41 47 49 49 48 47 49 53 59 65 69 71 71 69 68 70 75 80 82 84 92 95
29 24 22 16 28 56 65 58 55 54 53 51 51 54 55 55 54 51 46 40 36 34 34 35 36 35 31 27 22 17 14 12 12 13 12 12 12 13 16 16 14 12 14 16 18 17 15 20 34 50 58 55 48 39 32 32 39 44 44 48 47 34 22 21 27 31 31 34 39 44 47 50 55 61 67 69 66 64 65 67 72 73 73 82 94
27 26 23 19 27 54 68 62 55 57 56 52 50 51 53 54 54 52 47 40 37 35 35 35 36 38 39 35 26 20 16 14 14 14 14 13 11 12 13 13 11 9 10 11 11 12 12 13 19 33 47 52 50 41 32 33 42 42 36 39 43 38 32 29 30 31 26 23 27 34 38 44 53 62 70 72 70 67 64 62 68 77 79 76 78
27 28 26 24 27 42 53 54 56 61 62 56 49 46 48 51 52 50 45 41 39 37 33 31 32 35 40 42 34 24 19 17 18 19 21 22 20 16 13 11 11 10 9 10 10 9 11 12 12 19 32 42 46 42 34 33 39 39 32 34 41 45 51 49 39 39 44 38 31 28 29 38 48 58 67 73 73 66 58 54 55 66 77 77 73
28 28 28 28 30 39 50 55 58 59 56 48 39 38 45 51 51 47 43 41 39 36 30 27 27 30 39 46 39 27 21 20 21 27 32 35 34 29 22 15 11 11 10 9 10 10 9 10 9 12 20 30 36 37 35 33 34 36 33 35 44 50 60 62 49 45 51 54 54 47 41 40 42 43 47 53 56 53 48 44 41 42 49 58 63
32 27 25 29 31 34 40 46 47 41 35 30 28 35 43 45 45 42 40 39 38 34 30 28 26 30 42 53 46 29 22 24 30 40 46 46 42 37 32 27 18 13 12 10 9 10 10 9 9 9 11 18 23 26 29 30 33 36 31 29 32 34 41 50 48 42 43 51 59 58 52 52 53 47 38 32 29 27 27 27 27 24 22 26 32
37 29 24 26 28 25 24 30 32 27 21 21 25 30 33 35 37 38 37 35 32 28 28 29 26 24 33 50 51 34 22 23 30 40 48 48 43 36 32 34 30 20 14 13 11 10 10 10 10 10 10 10 12 16 21 24 27 28 23 17 16 16 17 21 22 23 26 34 43 49 50 54 63 65 49 31 22 20 21 21 17 13 11 10 11
38 30 24 24 24 23 23 26 29 26 22 22 23 24 27 30 32 32 31 28 24 22 24 28 28 23 21 31 40 36 29 26 27 30 35 38 39 35 28 31 38 33 21 16 14 12 11 11 11 11 10 10 9 10 12 14 15 15 13 12 13 13 12 11 12 15 18 21 26 33 40 52 69 73 51 26 20 20 19 16 12 8 7 7 7
40 33 28 27 27 29 31 32 33 31 28 25 25 25 25 25 27 26 25 24 23 24 26 26 27 25 21 21 26 29 29 28 27 27 27 28 29 26 21 22 33 39 31 20 16 15 13 11 12 12 12 11 11 10 11 11 11 11 12 12 13 13 12 12 12 13 14 15 18 25 48 77 82 61 32 11 8 10 9 8 7 6 6 5 6
42 38 37 36 36 37 37 37 37 35 33 30 28 27 26 25 25 26 26 27 28 28 29 29 28 27 26 24 23 23 23 24 25 25 26 26 25 23 19 18 24 34 35 25 17 16 15 14 13 12 12 12 12 12 12 12 12 13 13 13 15 14 13 13 12 12 11 11 12 15 35 61 52 26 12 6 5 5 5 5 5 5 5 4 5
45 44 44 45 46 43 41 40 40 39 36 34 33 31 29 29 30 31 32 31 32 32 30 30 29 27 27 26 26 25 25 26 26 30 38 41 39 35 27 21 21 26 31 25 17 15 15 15 14 13 13 12 12 12 12 13 13 13 14 13 14 13 12 13 11 11 10 8 9 7 9 16 11 5 5 4 4 4 4 4 4 4 4 4 4
Wind_Speed
24 24 24 23 22 21 21 21 20 20 19 19 19 19 19 19 18 18 18 17 14 13 13 13 14 14 15 15 14 14 13 13 13 12 12 13 13 13 14 14 14 13 12 9 7 6 5 3 2 1 1 2 3 3 4 4 4 4 5 5 5 4 4 3 3 3 3 3 2 2 1 1 0 0 2 3 5 5 5 5 5 5 5 5 5
25 24 24 23 22 22 21 21 21 21 20 20 21 20 20 20 20 19 19 18 15 13 14 15 16 16 16 16 16 15 15 15 14 13 13 12 13 13 13 13 13 13 12 10 7 6 5 4 2 1 2 3 3 4 4 4 5 5 5 5 5 5 4 4 3 3 3 3 2 2 1 0 0 1 1 3 4 5 5 5 5 5 5 5 5
25 24 24 23 23 22 22 22 22 22 21 21 22 21 22 22 22 20 19 19 17 16 17 18 18 18 18 18 17 16 15 16 15 14 14 13 13 13 12 13 13 12 12 10 8 6 6 4 3 2 2 3 4 4 5 5 5 5 5 5 5 5 4 4 3 2 2 3 2 2 1 0 0 1 1 2 4 5 6 6 6 5 5 5 5
26 25 25 24 24 23 23 23 22 22 22 22 23 23 23 23 22 20 19 19 19 19 20 21 21 20 19 19 18 17 16 16 16 15 15 14 13 12 12 12 12 12 12 11 9 7 6 5 4 4 3 4 5 5 5 6 5 5 5 5 5 5 4 4 3 2 2 2 2 2 1 0 0 0 1 2 3 5 5 6 6 6 6 5 5
26 26 26 25 25 24 24 24 23 23 23 24 24 24 24 24 23 21 18 18 19 21 22 22 23 22 20 19 18 17 16 16 16 16 15 15 14 13 12 12 12 11 11 11 10 8 7 6 6 5 5 5 6 6 6 6 6 6 6 5 5 5 4 4 4 2 2 2 2 2 1 0 0 0 1 1 3 4 5 6 6 6 6 6 5
28 28 28 27 27 26 25 25 25 25 25 25 25 25 25 25 24 22 19 18 19 21 23 24 24 23 21 19 18 18 17 16 16 16 16 15 15 14 13 12 11 12 12 12 11 9 8 8 7 6 6 6 7 7 7 7 7 6 6 6 5 5 5 4 4 3 2 2 2 2 1 0 0 0 1 1 2 4 5 6 6 6 6 6 5
29 29 29 28 28 27 27 27 26 26 26 26 26 26 25 26 25 24 22 19 19 21 23 25 25 24 22 20 19 18 18 17 16 16 15 15 15 14 13 12 11 12 12 12 12 10 9 9 9 8 7 7 8 8 8 8 7 7 7 6 6 5 5 4 4 3 2 2 2 2 1 1 0 0 0 0 1 3 5 6 6 6 6 6 6
30 30 30 29 29 29 28 28 27 27 27 27 26 26 26 26 26 25 23 20 20 22 24 25 25 24 22 20 19 19 18 18 17 16 15 14 14 14 13 13 12 12 12 12 12 11 10 10 10 9 8 8 9 9 9 8 7 7 7 7 6 5 5 5 4 4 3 3 2 1 1 1 1 0 0 0 1 2 3 5 7 7 6 6 6
30 30 31 31 30 30 29 28 27 27 28 28 28 27 26 26 26 25 23 21 20 22 23 24 25 24 22 21 20 19 19 18 17 16 15 14 14 14 13 13 12 12 12 13 13 12 11 10 11 11 10 10 10 10 9 9 8 8 8 7 6 6 5 5 4 4 4 3 2 1 1 2 1 1 0 0 1 1 2 4 6 7 7 6 6
31 31 32 32 32 31 30 28 27 28 29 29 29 28 26 25 24 23 22 21 21 22 23 24 25 24 23 22 21 20 19 18 18 17 16 15 14 14 13 13 13 13 12 13 13 13 12 11 11 12 11 11 12 11 10 9 8 8 8 8 7 6 6 6 5 4 4 4 3 1 1 2 2 1 1 1 1 1 1 3 4 6 7 7 6
32 32 32 32 32 31 30 28 28 29 30 30 28 27 26 23 20 20 21 21 21 22 24 25 25 25 25 23 21 20 19 19 18 17 16 16 15 14 13 12 13 13 13 13 13 13 13 12 12 12 13 13 13 12 12 11 10 10 9 9 8 7 7 7 6 5 5 4 4 2 1 1 1 2 1 1 1 1 1 2 3 4 6 7 7
32 32 32 32 32 31 30 29 29 30 31 29 28 26 25 24 22 22 23 22 22 22 23 25 25 26 25 23 21 20 20 19 19 18 17 17 16 15 14 13 13 13 14 14 13 13 13 13 13 13 14 14 14 14 13 12 12 11 11 10 8 8 7 7 7 6 5 5 4 3 2 1 1 2 2 2 1 1 1 1 2 3 4 6 6
31 31 32 31 31 31 30 29 30 30 27 25 25 25 25 26 26 27 26 24 23 23 23 25 26 27 26 22 21 21 20 20 19 18 18 18 18 17 15 14 13 14 15 14 14 14 13 14 14 14 15 15 15 15 15 14 13 12 12 11 9 8 8 8 7 7 6 6 5 5 3 2 1 1 2 2 2 2 2 1 2 3 4 5 6
31 32 32 31 32 32 31 31 30 27 24 22 22 22 22 23 25 27 27 27 26 25 24 25 27 27 25 22 21 22 21 20 19 19 18 18 18 17 16 15 14 14 15 15 14 14 14 14 15 15 16 16 16 15 16 16 15 14 13 12 10 9 9 9 8 8 7 7 7 6 5 3 2 1 2 3 2 2 2 2 2 2 4 5 5
32 32 32 32 33 32 32 32 30 28 26 25 21 20 20 20 23 25 26 28 30 29 26 27 28 26 24 22 22 22 21 20 20 20 19 19 19 18 17 16 15 15 15 15 15 15 15 15 15 16 17 17 16 16 16 17 16 15 14 13 11 10 10 9 9 9 9 8 8 7 6 5 4 2 1 2 3 3 3 2 2 2 3 4 5
32 32 33 34 34 33 33 32 32 31 29 28 25 23 22 22 23 24 25 28 32 32 29 28 27 25 24 23 23 23 22 21 21 20 20 20 19 19 18 17 16 15 15 15 15 15 15 15 16 17 17 17 17 17 17 17 17 17 15 14 13 12 11 11 11 10 10 10 9 9 8 7 5 4 3 1 2 3 3 3 3 3 3 4 5
33 33 34 34 33 33 32 32 33 32 30 29 27 26 25 25 24 24 26 29 34 35 31 29 27 26 25 24 23 23 22 22 22 21 21 20 20 19 18 18 17 16 15 15 15 16 16 16 16 17 18 18 18 18 18 18 18 18 17 16 15 14 13 12 12 12 11 11 11 10 10 9 7 6 5 3 2 2 3 3 3 3 3 4 5
33 33 33 33 33 32 32 31 31 30 28 27 25 25 25 25 25 27 28 29 34 34 30 29 28 26 25 23 22 22 22 22 22 21 21 21 20 19 18 18 17 17 16 15 15 16 16 17 17 18 18 19 19 20 20 20 19 19 18 17 16 15 14 14 13 13 13 12 12 12 11 10 9 8 7 5 4 2 2 3 3 3 3 3 4
33 33 32 33 33 32 31 29 28 27 25 25 24 23 24 24 23 28 29 27 29 30 30 30 26 24 23 22 21 21 22 22 22 21 22 22 20 19 18 19 18 17 16 15 15 15 16 17 17 18 19 20 21 21 22 21 21 19 19 18 18 17 16 16 15 15 15 14 14 13 13 12 11 10 9 7 6 4 3 3 4 4 3 3 4
32 33 33 33 33 32 30 26 24 24 24 24 23 22 23 22 20 23 26 25 27 30 30 27 23 21 20 19 20 21 22 22 22 22 22 22 20 19 19 18 18 17 16 16 16 16 16 17 18 18 19 20 21 22 23 23 22 21 20 20 19 18 18 18 17 16 16 16 16 15 14 14 13 12 11 10 8 7 6 5 4 4 5 4 4
32 33 33 33 32 31 28 25 23 23 23 21 18 17 18 19 16 17 21 23 26 27 26 23 20 19 18 18 19 21 22 22 23 23 22 22 20 19 19 18 18 17 17 16 16 16 16 17 18 19 19 21 22 23 24 25 24 23 22 22 21 21 20 19 18 18 18 18 17 17 16 16 15 14 13 12 11 10 8 7 6 6 6 6 5
32 33 32 32 30 27 24 22 22 21 20 16 15 16 17 17 15 15 18 21 22 22 21 20 19 18 17 19 20 21 21 22 22 22 21 21 20 20 19 19 18 18 17 17 16 16 16 17 18 19 19 20 22 23 24 25 25 24 24 24 24 23 22 20 20 20 19 19 19 19 18 17 17 16 15 14 13 13 11 10 9 8 7 7 7
32 31 30 28 26 23 20 19 18 18 16 14 16 17 16 17 16 16 16 18 19 19 19 19 18 18 18 19 20 20 20 20 20 20 20 20 20 20 20 19 18 18 18 18 17 16 17 17 18 19 19 20 21 23 24 25 26 26 26 26 26 25 23 22 22 22 21 21 20 20 20 19 19 18 17 16 16 15 14 13 11 10 9 8 8
30 29 26 24 21 18 16 14 14 16 16 14 13 14 15 16 15 15 16 18 19 19 19 20 19 19 19 20 19 18 18 19 19 20 20 20 21 21 20 19 19 18 18 18 17 17 17 17 18 19 19 19 20 22 24 26 27 27 27 27 27 26 25 24 24 24 23 22 21 22 22 22 21 20 20 19 18 17 17 16 14 13 12 11 10
28 25 23 20 16 14 13 12 12 15 15 12 11 13 15 17 17 18 19 21 22 20 19 19 19 20 20 19 17 17 18 19 20 20 21 21 21 20 19 19 18 17 17 17 17 17 17 18 18 18 18 18 19 21 24 26 27 27 27 27 27 26 26 26 25 25 24 23 23 23 23 23 23 22 22 21 20 20 19 18 17 16 15 14 13
25 21 19 16 13 11 10 11 13 13 14 13 13 14 15 15 17 20 20 19 20 20 21 20 19 20 18 17 17 17 18 20 20 20 21 21 20 19 19 19 18 17 17 17 17 17 18 18 18 18 18 18 18 20 23 26 27 27 27 26 26 26 26 27 27 26 25 25 24 24 24 25 25 24 24 23 22 22 21 20 20 19 18 17 16
21 18 16 13 11 10 9 11 13 12 13 13 13 14 13 12 11 15 17 18 17 15 18 20 19 18 17 17 17 18 19 20 21 21 21 20 19 19 19 18 18 18 17 17 17 18 18 18 18 18 17 17 17 19 22 24 26 26 25 25 26 26 27 27 27 27 26 25 24 24 25 25 25 26 26 25 24 23 23 22 22 21 20 20 19
19 16 14 12 11 11 10 12 12 12 13 13 13 13 13 11 9 10 13 17 16 12 14 17 17 17 16 17 17 18 19 20 22 22 20 19 18 18 19 19 19 18 18 18 18 18 18 18 16 16 16 17 17 19 21 22 23 24 24 24 25 26 26 27 27 26 26 25 24 24 24 25 25 26 26 26 25 25 25 24 24 23 22 22 22
17 15 13 12 13 13 12 12 12 12 12 13 13 12 12 12 11 11 11 12 14 13 13 14 14 15 16 17 18 19 19 20 21 21 19 17 18 19 19 19 18 18 18 18 18 18 18 17 17 16 15 16 17 19 20 21 22 22 23 23 24 25 25 26 26 26 25 25 24 24 23 24 24 25 26 26 26 26 26 26 26 25 25 24 24
20 17 11 11 13 14 14 13 13 13 12 12 11 10 11 14 15 12 9 9 13 16 15 13 13 14 15 16 17 18 18 18 19 19 18 18 19 19 19 18 17 18 18 17 18 18 18 17 18 18 16 16 17 18 19 21 22 22 22 22 23 23 23 24 24 25 24 24 24 23 22 22 22 23 25 25 26 27 27 27 27 27 27 26 26
21 14 8 8 12 14 15 14 12 12 11 11 11 12 11 12 13 11 10 10 12 13 13 12 12 13 14 16 16 17 18 18 17 17 17 17 18 16 15 15 16 17 16 17 17 16 17 17 17 18 17 17 16 16 18 19 21 21 21 21 22 22 22 23 23 23 22 22 23 22 21 22 22 23 24 25 25 26 27 28 29 30 29 29 27
14 10 5 4 9 12 14 13 13 13 12 11 11 12 10 8 9 10 11 10 9 9 10 11 11 12 15 15 15 16 17 18 17 16 15 16 15 14 13 14 14 15 15 16 15 14 16 16 16 17 17 16 16 16 17 17 19 20 20 21 21 22 23 23 23 23 22 22 23 22 22 22 23 23 23 24 25 27 29 30 31 31 31 30 29
8 7 5 4 5 10 11 12 12 12 11 10 9 9 9 9 9 9 9 9 8 9 9 10 11 14 16 14 14 15 16 17 15 13 14 13 12 12 13 14 12 12 14 15 15 14 15 15 15 16 17 16 15 16 16 17 18 19 19 21 21 22 23 24 24 24 23 24 24 24 24 23 23 23 23 24 26 28 29 31 32 33 32 31 30
6 4 5 6 2 6 7 8 9 10 10 9 9 9 9 9 9 8 9 9 8 9 9 11 12 14 15 13 14 15 15 15 13 12 11 10 11 10 11 12 12 11 13 14 15 14 14 14 15 16 16 16 15 16 17 17 17 17 19 20 21 22 23 24 24 24 24 25 25 25 25 25 24 23 22 23 25 25 25 26 27 30 31 31 31
4 1 5 7 2 2 4 4 7 9 10 11 11 12 12 11 11 11 11 11 10 10 11 12 12 13 13 13 13 14 14 14 11 11 11 8 9 10 10 11 11 11 13 14 15 15 14 15 15 16 16 16 16 16 17 17 17 18 19 20 21 22 23 23 23 23 23 24 25 26 25 25 24 24 24 24 25 25 24 23 23 24 26 28 29
10 7 8 9 4 3 5 5 8 10 10 12 13 14 14 14 13 12 12 12 12 12 12 12 13 12 13 13 12 12 12 12 10 10 10 8 8 9 9 10 11 11 13 14 15 16 16 15 15 16 17 17 17 17 17 17 17 17 18 19 20 21 22 22 22 22 22 23 25 25 25 25 24 24 25 25 25 25 25 24 24 24 24 25 27
14 12 12 13 7 3 6 8 9 10 10 11 13 13 13 13 12 12 13 13 13 13 13 13 13 12 12 13 13 12 11 10 8 8 8 8 8 9 10 10 11 12 13 15 15 16 16 16 16 16 17 17 18 18 18 17 16 16 17 18 19 20 20 20 21 21 21 21 22 21 21 23 23 24 24 25 25 24 24 24 25 26 26 27 27
15 15 14 14 9 6 8 10 11 9 8 9 10 11 12 13 12 12 13 14 13 13 14 14 14 13 12 12 13 13 12 11 9 8 8 8 9 10 11 12 12 12 14 15 16 16 16 17 17 16 16 17 18 18 17 16 16 16 17 17 18 19 19 19 19 20 20 21 21 20 20 21 22 22 22 22 23 23 23 23 25 26 27 28 29
16 16 16 16 15 11 10 13 11 8 7 8 8 9 10 11 11 12 13 14 14 14 14 14 14 14 13 13 13 13 13 13 11 10 8 9 10 11 11 12 13 13 14 14 15 16 17 17 16 16 16 17 17 18 17 16 16 17 17 17 17 18 18 18 19 19 20 21 21 21 22 22 21 21 20 21 21 22 22 23 24 25 26 27 28
17 17 18 19 17 12 11 14 13 8 7 7 7 7 8 9 10 10 12 12 13 13 13 13 13 14 14 14 14 14 14 14 13 11 10 10 11 11 11 11 13 14 14 14 14 15 16 16 16 15 16 16 17 17 17 16 17 17 17 16 16 17 17 18 18 18 19 19 20 21 22 22 22 21 20 21 21 21 22 22 23 23 24 25 27
17 17 17 18 16 13 14 15 13 10 9 8 8 8 9 10 9 10 11 12 12 12 13 13 13 14 14 14 14 15 15 15 14 13 12 12 12 12 12 12 13 14 14 13 14 14 15 15 15 15 15 16 18 18 17 17 17 17 16 16 16 16 16 16 17 17 18 18 19 21 22 21 21 21 21 21 20 20 20 21 21 22 22 23 24
17 17 18 18 15 14 14 14 13 12 11 10 11 11 12 12 11 12 12 12 12 12 13 13 13 14 15 15 15 15 16 16 15 15 14 13 13 12 12 12 13 14 14 13 14 15 15 15 16 16 16 17 18 19 18 17 17 16 16 16 16 16 16 16 16 17 17 18 19 19 20 20 20 21 21 21 20 20 20 20 21 22 22 22 22
17 17 17 17 16 14 14 14 13 12 12 13 14 14 15 14 13 13 13 13 13 13 13 13 14 14 15 15 16 16 16 15 15 14 14 14 14 13 13 13 13 13 14 14 15 16 16 16 16 16 17 18 19 20 20 19 17 16 16 16 16 16 16 16 16 16 17 17 18 18 19 20 20 20 20 20 20 20 20 20 20 20 21 22 22
17 16 16 16 17 16 17 16 14 14 14 16 17 17 16 16 15 15 15 15 15 14 14 14 14 15 15 16 16 16 15 15 14 12 11 11 13 14 14 14 14 14 15 15 16 17 17 17 16 16 17 18 20 20 21 20 19 17 17 17 17 17 16 15 15 15 16 16 16 17 18 19 19 19 19 19 19 20 20 20 20 20 19 20 21
17 16 16 16 17 17 17 17 16 16 18 19 19 18 17 17 17 17 17 17 16 15 15 14 14 15 16 16 16 16 15 14 13 12 10 9 11 13 14 14 14 15 16 16 17 17 18 18 17 17 17 19 20 20 21 21 19 18 17 17 17 18 17 15 14 15 15 15 15 15 16 17 18 19 19 19 19 20 20 21 21 21 21 20 20
15 16 16 16 17 18 18 18 19 19 20 20 20 19 19 18 18 17 18 18 17 15 14 14 13 13 15 16 16 16 15 15 14 13 13 12 12 13 15 15 15 15 16 17 17 18 18 18 18 17 18 19 19 20 21 20 19 19 18 17 17 18 17 16 15 16 16 16 15 16 16 17 18 18 19 20 20 20 21 22 22 23 23 22 22
12 14 15 16 17 18 19 19 19 20 20 20 20 20 20 19 18 18 18 17 16 15 14 14 13 12 12 13 14 15 16 16 16 17 17 18 18 17 17 17 17 16 16 17 18 18 19 19 18 18 18 19 19 20 20 20 20 19 18 18 19 19 18 17 18 18 17 17 17 18 18 18 19 19 19 20 20 21 22 22 23 23 24 24 24
11 13 15 16 17 18 18 18 19 19 20 20 20 20 20 18 18 18 18 17 16 15 15 14 14 13 12 12 13 15 16 17 17 19 20 22 22 21 19 19 19 19 18 17 18 19 19 19 19 19 20 20 20 20 20 20 20 20 19 20 20 19 19 19 18 18 18 18 18 18 19 20 20 20 20 21 21 22 22 23 23 24 24 24 24
12 13 14 16 17 18 18 19 19 20 20 20 20 20 19 18 17 17 17 16 16 15 15 16 16 15 15 14 14 15 17 17 18 19 21 23 23 23 21 20 20 21 21 19 18 18 19 20 20 21 21 21 21 21 20 20 20 20 20 21 21 20 20 19 18 18 18 17 17 18 19 20 21 22 22 23 23 23 23 23 24 24 24 24 25
13 14 16 17 18 19 19 20 20 20 20 20 19 19 18 17 16 16 16 16 16 17 17 18 18 18 18 18 18 19 19 19 20 21 22 23 24 24 23 21 21 22 23 21 19 19 19 20 21 21 22 22 22 22 21 21 20 20 20 21 21 21 20 20 19 19 18 18 18 18 19 21 22 23 23 23 23 23 23 23 23 24 24 25 25
16 17 18 19 19 21 21 22 22 22 21 20 19 18 17 17 17 17 17 18 19 20 21 21 22 22 22 22 23 23 23 23 22 22 23 24 25 25 24 23 21 22 23 23 21 19 19 19 21 22 22 23 24 23 23 22 22 21 21 21 20 21 20 20 20 19 19 19 19 19 19 21 22 22 22 22 22 22 22 22 23 23 24 25 25
Wind_Direction
271 272 275 277 278 279 280 280 281 283 287 291 296 301 306 311 312 313 315 312 305 307 310 312 316 315 311 307 303 302 302 303 305 310 316 320 322 323 323 321 318 315 314 314 313 312 314 312 309 322 201 208 217 227 246 266 283 290 303 316 324 329 325 318 297 269 256 250 245 250 258 277 318 145 171 170 163 156 153 157 156 159 152 141 132
273 274 276 276 276 277 277 278 279 282 286 290 294 298 303 307 310 308 306 307 301 298 300 305 311 310 307 304 301 301 300 301 303 305 310 315 318 320 320 318 314 311 310 310 308 302 298 291 277 274 224 216 220 232 247 263 278 287 298 311 322 331 334 331 313 281 263 253 243 242 246 256 286 118 152 169 168 163 159 161 162 164 157 148 143
273 274 274 274 274 274 275 276 278 281 284 288 292 296 301 304 310 310 302 299 294 291 292 299 305 306 304 301 298 297 298 300 302 304 306 310 314 316 316 314 310 306 305 304 301 293 285 278 257 247 234 223 223 236 251 264 276 285 292 305 319 333 338 339 327 296 274 259 247 243 243 247 278 109 134 160 170 169 166 164 165 166 159 155 151
272 272 272 272 272 272 273 274 277 280 283 287 290 294 299 303 309 311 304 294 287 285 288 295 301 302 301 298 295 294 297 299 301 303 303 306 311 313 313 311 306 301 300 298 293 285 275 266 249 236 231 225 224 235 251 264 275 283 288 297 313 328 337 343 340 318 286 267 252 244 240 250 337 97 127 152 167 173 173 171 170 167 162 160 157
268 269 269 269 270 270 271 274 276 279 283 287 290 294 298 302 306 310 305 293 283 280 283 291 297 297 296 294 292 293 296 298 299 300 302 305 309 311 310 309 302 297 294 291 287 278 265 257 248 232 226 225 223 232 247 263 272 279 285 292 306 321 335 345 351 342 301 275 257 246 235 216 0 78 105 149 167 175 178 177 176 172 167 166 163
266 267 267 267 268 268 270 272 275 279 283 287 290 294 299 302 304 308 305 292 281 277 280 287 293 292 291 291 292 294 295 296 297 298 301 305 307 308 308 306 299 293 291 287 283 276 261 251 247 232 221 224 223 230 243 259 269 278 284 289 302 317 331 342 351 354 320 289 269 254 243 227 38 61 95 150 172 177 179 181 180 178 175 171 169
265 266 266 267 267 268 269 271 275 280 284 287 290 294 297 300 302 305 303 290 279 276 279 284 288 288 287 289 290 291 291 292 293 294 299 303 304 304 303 302 296 290 287 285 281 276 263 249 245 235 221 221 224 229 240 253 265 275 281 287 298 311 325 336 344 354 344 311 287 264 252 226 180 0 84 152 183 185 183 182 182 182 183 179 176
265 266 267 267 268 269 270 273 278 282 285 287 290 292 295 297 297 300 299 288 279 276 277 280 282 283 283 286 286 285 286 287 288 291 296 299 299 299 300 299 293 288 286 283 279 275 266 250 244 239 224 220 223 229 238 249 261 271 278 283 291 302 314 326 337 347 349 332 315 277 245 223 200 228 2 168 184 195 192 187 184 184 187 186 184
265 267 268 269 269 271 273 277 282 284 287 290 292 293 294 296 293 294 292 284 280 275 273 275 276 278 278 280 281 280 281 282 285 288 291 293 294 296 297 296 293 288 285 281 277 273 266 252 243 239 229 222 224 228 235 245 257 265 272 276 282 293 301 311 323 336 340 339 335 313 250 227 208 202 141 141 173 194 202 196 189 186 186 188 188
267 268 269 270 272 274 278 281 285 287 291 293 295 293 292 294 291 288 285 280 278 273 270 270 271 274 274 274 275 276 278 279 282 285 287 288 290 292 293 293 291 288 285 281 276 272 265 255 243 238 233 225 225 228 232 241 252 259 265 270 274 282 289 296 309 324 331 333 337 340 282 239 208 195 162 147 161 180 205 204 197 191 188 186 188
268 269 271 273 276 279 283 287 290 293 295 296 294 291 288 288 286 284 281 278 276 271 268 268 269 272 272 269 270 272 274 277 280 283 285 286 288 290 291 290 288 286 285 281 276 271 265 257 246 238 234 229 226 227 231 240 246 252 258 264 267 272 279 287 298 312 320 323 326 332 316 257 202 184 172 166 153 134 170 199 200 198 193 188 186
270 272 274 277 281 284 289 293 296 297 296 295 291 288 284 279 279 281 278 274 273 270 268 268 269 270 268 264 264 268 271 274 278 280 282 284 286 288 291 291 288 287 286 282 277 272 266 259 248 238 235 231 228 227 230 239 243 246 252 257 260 265 270 278 288 298 305 310 313 314 314 294 200 174 172 168 152 134 134 171 193 198 198 193 188
273 276 279 282 284 289 293 296 298 298 298 297 291 284 281 276 275 277 274 268 265 265 265 265 265 265 262 259 260 264 267 271 275 278 280 282 285 287 291 293 291 288 285 283 279 274 267 260 250 239 234 231 229 228 230 237 241 245 249 252 256 261 265 272 279 286 291 297 302 305 306 307 277 182 173 168 158 144 140 147 185 195 196 196 193
276 279 282 285 289 293 296 298 298 297 298 301 296 286 280 276 274 272 269 264 260 260 260 259 259 258 255 254 257 262 265 270 273 276 278 281 284 288 291 291 288 283 281 281 279 275 269 261 251 241 234 232 230 229 231 237 241 245 248 251 254 257 261 266 271 276 281 286 291 295 299 301 297 234 178 172 167 159 152 151 172 193 192 192 194
279 282 286 291 294 296 297 298 297 294 293 295 295 290 281 273 272 269 264 260 257 256 256 255 254 252 250 251 256 260 265 270 272 274 276 280 284 287 289 289 286 281 279 278 277 275 270 262 252 242 235 233 232 229 233 236 241 246 247 249 251 253 257 261 265 269 273 278 284 287 290 291 292 287 228 182 173 169 164 156 165 181 190 190 192
282 287 291 293 295 296 297 297 295 294 292 290 288 286 278 268 267 265 258 254 254 252 250 250 248 246 246 250 255 261 266 269 271 273 276 280 284 286 288 288 287 283 278 274 273 273 270 262 252 243 234 232 232 229 233 236 239 245 246 247 248 249 251 255 260 263 267 271 276 279 282 285 287 287 280 235 186 179 177 173 168 172 186 193 193
287 290 292 293 295 296 296 295 294 294 293 290 285 280 274 267 263 259 255 252 251 247 244 245 243 241 244 248 255 262 266 269 271 275 277 281 284 286 287 287 287 285 279 274 271 270 269 263 253 244 234 230 231 231 232 235 237 242 245 247 248 247 247 250 254 257 261 264 268 271 275 278 280 280 280 273 238 200 192 190 183 175 181 192 198
290 292 292 294 296 296 296 295 296 298 295 290 284 276 269 264 261 256 254 252 248 244 242 240 238 239 243 248 255 261 266 270 273 275 278 281 283 285 286 286 286 285 282 276 271 268 266 263 255 246 236 229 229 230 233 235 236 239 243 247 248 248 248 248 249 252 254 257 261 264 268 271 273 275 276 275 267 242 215 205 200 191 188 192 201
293 293 291 294 297 298 298 298 300 299 295 290 285 275 263 259 257 253 251 248 246 245 245 241 237 240 244 250 256 262 267 271 273 274 277 280 282 285 285 284 285 284 281 276 270 266 263 263 258 249 239 231 228 229 233 236 236 237 240 243 247 248 248 248 248 249 250 252 255 257 260 263 266 269 270 270 269 261 245 225 214 208 205 202 204
294 294 292 292 294 296 298 301 304 299 295 294 287 275 262 255 253 252 250 250 250 246 243 239 237 241 244 251 259 265 270 272 272 274 276 279 281 283 282 281 282 281 277 272 267 264 261 261 260 252 243 234 229 228 232 236 238 238 239 242 244 245 246 247 249 249 250 251 251 252 253 255 258 261 264 265 265 264 258 246 233 221 216 214 213
294 295 296 294 293 295 296 301 302 296 295 294 282 269 261 257 255 256 255 254 252 244 238 235 235 239 244 255 265 270 272 272 272 273 276 278 281 282 281 280 279 277 273 269 265 263 260 258 258 255 247 238 231 229 231 236 239 239 241 243 244 245 245 246 248 249 250 251 251 251 251 251 252 253 256 259 262 263 261 255 248 238 228 223 222
295 296 297 297 298 298 298 300 298 291 289 282 271 268 262 256 256 261 255 245 241 239 237 233 234 239 248 263 271 272 271 271 272 274 277 279 281 281 280 280 276 273 270 267 265 263 261 258 256 254 250 242 234 231 232 236 240 241 242 244 245 246 246 246 247 247 248 250 251 252 251 250 249 249 250 253 257 260 259 257 255 250 243 235 230
295 295 296 296 297 298 296 297 293 283 273 264 266 269 261 254 255 255 244 236 238 241 239 236 239 245 258 272 273 272 272 272 274 276 279 280 281 281 279 278 275 272 270 268 267 265 263 260 257 254 251 245 237 234 235 238 241 242 242 243 245 246 247 246 246 246 246 246 249 251 251 250 249 249 248 249 251 255 257 256 256 255 252 246 240
293 294 294 293 293 291 288 288 281 269 261 260 260 258 257 258 255 246 241 247 249 244 243 243 245 253 266 273 271 272 275 276 278 279 280 279 279 280 278 276 274 273 272 271 270 269 267 265 260 256 252 247 240 236 236 239 241 243 243 243 245 246 246 246 246 246 246 245 247 249 250 250 249 249 249 248 248 250 252 254 255 256 256 254 250
290 291 289 287 287 283 282 279 268 259 257 259 252 249 255 255 249 244 249 259 256 249 247 246 248 260 269 270 271 275 277 278 278 278 278 277 277 278 278 277 276 275 274 273 271 269 268 267 263 257 253 248 242 237 236 239 241 243 244 244 244 245 245 245 245 245 245 245 245 246 248 249 248 248 248 249 249 249 250 250 253 256 257 257 256
286 285 283 283 280 278 280 270 260 253 252 252 247 248 249 246 246 245 246 255 259 253 246 247 254 262 267 268 272 275 276 277 276 276 276 276 277 277 277 277 277 276 272 271 268 265 263 265 263 257 252 248 241 235 236 239 242 244 245 245 245 244 244 244 244 244 244 244 243 245 246 247 248 247 247 248 249 250 251 250 251 254 256 257 257
281 281 278 278 276 275 273 261 256 249 246 245 242 243 240 236 236 237 238 242 251 254 246 250 258 261 265 269 271 273 273 275 275 275 275 275 276 275 275 275 273 271 267 265 263 260 258 259 261 257 250 245 240 233 233 237 241 244 245 245 245 245 245 245 246 245 245 245 244 244 245 247 248 248 247 247 248 250 252 253 252 253 254 255 254
275 272 268 268 269 266 262 258 255 249 243 240 239 240 243 241 229 231 240 240 246 260 259 256 260 263 267 269 270 272 272 275 277 276 274 275 275 273 271 269 268 266 264 262 258 257 256 255 255 255 251 244 240 233 231 234 239 242 242 243 243 244 245 246 248 248 248 247 246 245 246 247 247 248 248 248 249 250 252 254 255 254 253 253 253
260 255 255 259 259 257 252 250 251 251 247 245 243 237 237 243 248 254 253 249 254 267 274 268 266 269 271 271 271 272 272 274 275 276 276 274 270 267 264 264 264 264 262 259 257 256 256 254 251 249 248 244 238 233 230 231 234 237 239 241 242 244 245 246 247 249 250 249 247 246 246 247 247 248 248 249 250 252 252 253 254 255 254 254 253
248 241 239 243 249 253 250 246 245 247 251 249 244 232 230 241 253 266 270 267 267 270 279 281 276 276 274 272 271 272 274 276 276 279 279 271 265 262 261 263 263 262 261 258 257 257 256 254 251 248 244 242 240 235 232 230 231 233 237 239 241 243 244 246 247 249 250 250 249 247 246 245 245 246 247 249 251 252 254 254 255 255 255 255 254
258 238 217 225 240 253 253 251 246 244 250 249 245 249 251 248 251 265 275 275 272 271 278 283 282 278 273 271 274 276 278 282 282 283 282 271 267 269 270 267 263 262 262 260 259 259 259 255 253 250 244 243 245 242 237 234 232 232 234 236 238 239 240 243 247 248 250 251 250 248 246 245 245 245 246 248 251 253 254 255 255 255 255 255 256
268 239 223 234 239 254 256 253 251 242 244 245 245 252 255 253 256 266 273 273 276 277 281 287 286 279 276 276 278 278 278 281 281 280 277 270 272 278 278 273 268 266 264 264 262 260 262 256 252 251 246 243 245 245 241 239 238 234 232 232 234 235 237 241 244 246 248 250 251 250 249 249 249 247 247 249 252 253 253 253 253 254 254 255 256
250 231 269 304 241 252 253 252 253 236 232 237 234 239 249 259 268 276 281 280 281 282 284 289 285 280 282 278 274 274 276 282 284 283 280 276 277 277 275 273 272 268 265 265 262 260 259 254 251 250 246 241 240 242 240 239 241 239 235 233 232 234 235 238 240 243 246 248 250 251 251 252 251 250 251 253 254 254 253 254 254 255 255 256 256
210 205 295 319 264 245 246 247 246 229 228 232 228 239 254 263 272 285 292 291 284 277 279 282 280 280 282 277 272 275 284 292 290 289 292 289 283 277 272 270 268 265 264 263 261 259 256 255 256 251 247 242 238 239 238 238 240 240 241 238 236 235 235 237 239 241 244 246 249 250 251 252 254 255 255 256 259 261 260 259 259 258 258 258 258
226 260 288 292 286 219 225 231 233 231 238 239 240 251 259 266 276 289 296 295 284 273 271 275 276 274 274 274 274 278 293 304 300 296 302 300 285 278 272 268 264 260 258 259 261 263 263 263 261 254 250 246 242 241 239 240 240 240 242 241 240 239 238 238 239 241 244 246 249 250 252 252 254 258 259 259 261 265 267 267 265 264 263 263 262
270 290 276 262 250 202 208 219 227 232 240 243 247 255 261 266 273 286 292 288 279 271 268 270 273 272 270 271 274 277 289 302 306 303 302 294 283 278 274 268 263 260 258 259 260 263 267 268 264 256 252 249 247 246 243 243 244 244 246 245 246 245 243 241 240 243 246 248 250 251 252 254 255 257 259 262 263 264 266 269 269 267 266 265 264
272 285 276 247 236 229 215 221 227 229 236 241 246 250 254 257 265 281 284 277 271 268 267 267 269 270 270 270 272 275 280 287 290 288 284 281 277 275 273 266 263 263 261 260 260 263 268 269 267 261 254 251 250 250 248 249 250 252 253 251 252 253 252 247 242 243 246 247 250 253 255 256 257 258 259 263 265 266 266 266 266 265 264 263 263
267 278 271 240 240 263 241 232 225 225 238 241 243 244 246 251 262 276 277 271 266 264 265 267 270 270 270 270 270 272 275 275 271 267 267 268 271 273 275 270 264 263 262 263 263 264 268 269 269 265 257 253 252 252 253 255 257 258 258 257 256 257 257 253 247 246 248 250 254 260 262 261 261 261 261 262 264 268 268 266 264 263 262 262 262
262 267 260 245 256 267 245 234 228 225 237 244 249 248 250 257 264 272 272 269 265 263 265 268 272 274 272 271 270 270 271 272 269 266 260 258 263 268 274 272 264 263 264 265 267 267 268 269 269 266 258 255 254 255 258 261 263 262 261 262 261 259 257 254 251 250 251 254 256 260 263 263 262 262 262 263 264 266 268 268 267 265 262 260 259
258 259 257 253 257 252 227 228 237 239 233 243 255 254 257 259 263 269 269 267 265 265 266 268 272 275 276 276 277 275 272 270 268 265 259 255 257 261 265 263 261 265 267 269 272 271 268 267 267 265 259 256 256 257 261 265 266 265 265 265 265 263 261 259 257 255 255 256 257 258 260 261 262 262 262 263 265 266 268 269 270 269 266 263 260
258 257 258 257 253 241 228 228 238 240 235 247 256 256 259 259 265 268 265 264 263 263 265 268 272 275 279 281 283 283 279 274 270 267 262 256 254 257 257 254 257 265 269 271 272 272 271 269 265 263 259 257 257 258 262 266 267 269 269 269 270 269 267 266 264 260 259 260 260 260 261 261 261 264 265 265 267 268 270 271 272 273 271 269 266
260 258 258 259 250 236 229 228 233 236 241 251 256 257 258 259 265 265 263 262 259 259 261 264 269 273 278 280 280 281 280 278 275 274 271 264 259 256 254 253 255 261 265 267 268 271 274 272 267 262 259 259 259 260 262 266 269 270 271 273 274 274 272 270 268 265 263 264 264 264 264 264 264 266 267 268 270 271 272 273 274 274 273 272 272
260 258 256 252 241 227 226 233 237 240 247 254 257 258 257 258 260 260 261 260 258 259 260 261 263 265 271 275 277 278 277 276 275 277 278 276 273 266 260 258 258 260 264 266 267 272 274 274 271 265 262 261 261 262 263 266 271 273 272 272 273 273 273 270 269 271 271 269 268 267 267 267 269 271 272 271 271 272 274 276 278 279 278 274 274
255 252 250 243 236 230 232 240 243 245 251 254 255 256 256 256 256 257 259 258 259 261 260 261 262 263 266 269 272 273 273 273 271 271 275 280 281 276 268 261 258 258 261 265 267 271 273 273 271 267 264 262 262 262 262 265 270 272 270 271 271 271 272 270 270 274 277 277 274 270 269 270 272 275 276 275 273 273 275 278 281 282 282 280 278
249 247 245 240 235 234 236 242 245 247 250 252 253 253 253 254 255 257 258 258 260 262 264 266 267 269 268 266 266 268 269 269 268 266 268 278 287 285 276 266 259 256 256 260 264 267 270 271 270 268 264 262 261 261 261 262 266 267 267 270 271 270 272 273 273 272 274 277 277 274 272 273 274 275 275 275 274 274 276 279 281 283 283 283 282
243 240 239 236 234 235 238 242 245 247 249 251 251 250 250 252 255 256 258 260 263 266 271 272 274 278 276 269 263 262 264 264 265 266 270 280 291 295 288 275 264 257 254 255 258 262 265 268 269 268 265 263 262 262 263 262 264 267 268 268 271 272 274 275 274 273 274 275 275 275 276 276 277 277 276 276 275 276 278 279 281 283 284 284 283
240 234 232 233 235 236 238 241 244 247 249 249 248 248 249 252 255 258 261 265 269 272 274 273 274 280 284 276 263 258 260 260 261 264 270 279 288 295 294 285 273 262 256 253 254 257 260 264 268 269 267 265 264 263 263 263 264 266 268 268 269 272 274 274 274 274 276 277 277 277 277 276 277 279 280 281 280 280 280 280 282 283 285 285 285
236 230 228 230 234 236 237 239 242 245 246 246 246 248 250 253 256 261 266 271 275 275 274 274 273 274 278 276 266 260 260 262 263 264 269 275 282 288 291 288 281 271 261 255 254 255 257 260 264 268 269 267 266 265 264 263 264 266 268 268 269 271 272 273 273 273 275 277 277 278 277 276 276 277 281 284 284 283 283 283 284 284 284 285 285
235 229 228 230 233 234 233 235 239 242 244 244 246 248 251 254 258 263 268 273 275 275 274 274 274 273 273 272 268 263 263 265 268 270 271 274 279 283 285 285 283 277 268 260 256 255 255 257 260 264 267 269 269 269 268 268 267 267 268 269 270 271 272 272 272 272 273 274 274 274 275 275 275 276 280 284 284 284 285 285 285 284 284 283 283
239 233 230 232 234 235 235 236 238 240 242 243 245 248 251 253 256 260 265 269 271 274 275 276 277 278 279 279 277 274 271 271 274 277 279 279 280 282 283 282 280 277 271 264 259 256 256 256 258 261 264 267 268 268 269 269 269 269 269 270 270 271 272 272 272 271 272 272 271 270 270 270 272 275 279 282 282 282 282 283 283 284 283 282 281
242 240 238 237 237 237 238 239 239 240 242 243 245 247 249 250 253 257 261 266 270 273 277 278 281 283 284 285 284 282 280 278 278 281 285 286 285 283 283 281 278 273 267 262 259 259 258 258 258 260 262 265 268 269 269 270 271 272 272 272 271 271 271 269 268 268 268 268 268 268 268 268 271 275 277 279 280 280 281 282 282 283 283 282 280